sat.trackr.live / text

‹ back to catalog

STARLINK-11541 [DTC]

NORAD 63015 · 2025-032L

PAYLOAD ACTIVE UNKNOWN

§ Identity

Operator
Country
US
Launch date
2025-02-15
Launch site
AFETR
Launch vehicle
Mass (kg)
RCS (m²)

Purposes: comms

External: N2YO · Heavens-Above · Gunter

§ Orbital elements

Epoch: 2026-09-21T21:15:44.326080Z

Period
91.66 min
Inclination
42.9999°
Eccentricity
0.0005421
Mean motion
15.70940884 rev/d
Perigee alt
352.6 km
Apogee alt
359.9 km
Semi-major
6,734.3 km
B*
1.5616e-3
RAAN
92.4406°
Arg perigee
260.9504°
Mean anomaly
99.0750°
Rev number
9,308

§ Raw data

STARLINK-11541 [DTC]1 63015U 25032L   26264.88592970  .00205949  00000+0  15616-2 0  99942 63015  42.9999  92.4406 0005421 260.9504  99.0750 15.70940884 93088

JSON: /api/v1/satellites/63015 · /tle

For live sub-satellite position, see the globe view (requires WebGL).

§ Visibility from observer

Set your observer location to see the next 7 days of passes ≥ 10°. The values pass through the URL so the page stays shareable.

No JS? Fill the form by hand. The geolocation button needs JavaScript.